EW1088 Weather Reports


Display with metric or nautical units.
time (UTC)temp
F
wind
direction
speed
MPH
gust
MPH
rain 1hr
in
rain 24hr
in
rain mn
in
humidity
%
barometer
mb
20260509183611 42 145 6.0 12.0 0.00 0.04 0.02 86 991.4
20260509183111 41 189 6.0 11.0 0.00 0.04 0.02 87 991.4
20260509182611 41 149 6.0 13.0 0.00 0.04 0.02 87 991.4
20260509182114 41 144 5.0 11.0 0.00 0.04 0.02 88 991.4
20260509182110 41 141 6.0 13.0 0.00 0.04 0.02 88 991.4
20260509181117 40 133 5.0 13.0 0.00 0.04 0.02 90 991.5
20260509181112 40 137 5.0 13.0 0.00 0.04 0.02 89 991.5
20260509180107 40 148 5.0 10.0 0.00 0.04 0.02 90 991.4
20260509175607 40 114 5.0 10.0 0.00 0.04 0.02 90 991.4
20260509175107 40 81 5.0 10.0 0.00 0.04 0.02 90 991.4
20260509174611 39 133 3.0 7.0 0.00 0.04 0.02 92 991.4
20260509174607 39 114 4.0 10.0 0.00 0.04 0.02 91 991.4
20260509173606 39 121 3.0 7.0 0.00 0.04 0.02 92 991.5
20260509173104 38 153 3.0 7.0 0.00 0.04 0.02 93 991.6
20260509172604 38 112 2.0 6.0 0.00 0.04 0.02 93 991.6
20260509172104 38 137 2.0 5.0 0.00 0.04 0.02 93 991.6
20260509171601 38 105 2.0 7.0 0.00 0.04 0.02 93 991.7
20260509171059 38 126 2.0 7.0 0.00 0.04 0.02 94 991.7
20260509170559 37 104 2.0 7.0 0.00 0.04 0.02 94 991.8
20260509170057 37 118 3.0 9.0 0.00 0.04 0.02 94 991.7
20260509165556 37 94 3.0 9.0 0.00 0.04 0.02 94 991.8
20260509165053 37 124 3.0 7.0 0.00 0.04 0.02 94 991.8
20260509164553 37 133 2.0 5.0 0.00 0.04 0.02 94 991.8
20260509164057 36 141 3.0 8.0 0.00 0.04 0.02 94 991.9
20260509164053 37 97 2.0 8.0 0.00 0.04 0.02 94 991.9
20260509163053 36 139 3.0 7.0 0.00 0.04 0.02 94 992.0
20260509162553 36 135 3.0 5.0 0.00 0.04 0.02 94 992.0
20260509162056 36 126 2.0 6.0 0.00 0.04 0.02 94 992.0
20260509162051 36 132 3.0 5.0 0.00 0.04 0.02 94 992.0
20260509161051 36 125 3.0 7.0 0.00 0.04 0.02 94 992.0
20260509160550 36 124 4.0 8.0 0.00 0.04 0.02 94 992.0
20260509160051 36 106 3.0 8.0 0.00 0.04 0.02 94 992.1
20260509155549 36 124 2.0 5.0 0.00 0.04 0.02 95 992.1
20260509155047 36 145 2.0 4.0 0.00 0.04 0.02 94 992.1
20260509154547 36 141 2.0 4.0 0.00 0.04 0.02 95 992.1
20260509154047 36 176 2.0 5.0 0.00 0.04 0.02 95 992.1
20260509153546 36 117 2.0 5.0 0.00 0.04 0.02 94 992.1
20260509153049 36 178 2.0 4.0 0.00 0.04 0.02 94 992.1
20260509152551 36 155 2.0 4.0 0.00 0.04 0.02 94 992.1
20260509152547 36 159 1.0 4.0 0.00 0.04 0.02 94 992.1
20260509151545 36 149 2.0 4.0 0.00 0.04 0.02 94 992.2
20260509151045 36 168 2.0 5.0 0.00 0.04 0.02 94 992.2
20260509150542 36 172 2.0 5.0 0.00 0.04 0.02 94 992.2
20260509150043 36 155 1.0 5.0 0.00 0.04 0.02 94 992.2
20260509150039 36 106 1.0 2.0 0.00 0.04 0.02 94 992.2
20260509145042 36 99 0.0 3.0 0.00 0.04 0.02 94 992.3
20260509145036 36 114 1.0 3.0 0.00 0.04 0.02 94 992.3
20260509144039 36 123 0.0 2.0 0.00 0.04 0.02 94 992.5
20260509144035 36 123 0.0 2.0 0.00 0.04 0.02 94 992.5
20260509143039 36 123 0.0 3.0 0.00 0.04 0.02 94 992.7
20260509143035 36 123 0.0 1.0 0.00 0.04 0.02 94 992.5
20260509142035 36 122 1.0 3.0 0.00 0.04 0.02 94 992.8
20260509141537 36 126 1.0 3.0 0.00 0.04 0.02 94 992.9
20260509141533 36 129 0.0 2.0 0.00 0.04 0.02 94 992.9
20260509140532 36 126 1.0 4.0 0.00 0.04 0.02 94 993.0
20260509140033 36 122 2.0 4.0 0.00 0.04 0.02 94 993.1
20260509135537 36 197 1.0 3.0 0.00 0.04 0.02 94 993.1
20260509135533 36 129 1.0 4.0 0.00 0.04 0.02 94 993.0
20260509134536 36 131 1.0 3.0 0.00 0.04 0.02 94 993.2
20260509134532 36 131 1.0 3.0 0.00 0.04 0.02 94 993.2
20260509133533 36 131 1.0 3.0 0.00 0.04 0.02 94 993.2
20260509133033 36 131 1.0 3.0 0.00 0.04 0.02 93 993.3
20260509132534 36 131 0.0 2.0 0.00 0.04 0.02 93 993.4
20260509132530 36 131 1.0 2.0 0.00 0.04 0.02 93 993.4
20260509131635 37 131 1.0 3.0 0.00 0.04 0.02 94 993.6
20260509131532 37 131 0.0 2.0 0.00 0.04 0.02 94 993.6
20260509131528 36 131 0.0 2.0 0.00 0.04 0.02 94 993.6
20260509130029 37 131 1.0 3.0 0.00 0.04 0.02 94 993.7
20260509125529 37 131 0.0 1.0 0.00 0.04 0.02 94 993.7
20260509125033 37 131 0.0 0.0 0.00 0.04 0.02 94 994.1
20260509125029 37 131 0.0 0.0 0.00 0.04 0.02 94 993.9
20260509124028 37 131 0.0 0.0 0.00 0.04 0.02 94 994.1
20260509123528 37 131 0.0 0.0 0.00 0.04 0.02 94 994.1
20260509123029 37 131 0.0 0.0 0.00 0.04 0.02 94 994.3
20260509122529 37 131 0.0 1.0 0.00 0.04 0.02 94 994.3
20260509122028 37 131 0.0 1.0 0.00 0.04 0.02 94 994.4
20260509121533 37 131 0.0 1.0 0.00 0.04 0.02 94 994.5
20260509121529 37 131 0.0 1.0 0.00 0.04 0.02 94 994.4
20260509120528 37 131 0.0 2.0 0.00 0.04 0.02 94 994.5
20260509120028 37 131 1.0 3.0 0.00 0.04 0.02 94 994.7
20260509115528 37 131 1.0 3.0 0.00 0.04 0.02 94 994.7
20260509115028 37 131 0.0 3.0 0.00 0.04 0.02 94 994.8
20260509114529 37 131 0.0 1.0 0.00 0.04 0.02 95 994.9
20260509114029 37 131 0.0 2.0 0.00 0.04 0.02 95 994.9
20260509113526 37 131 0.0 2.0 0.00 0.04 0.02 95 994.9
20260509113026 37 131 0.0 0.0 0.00 0.04 0.02 95 995.1
20260509112527 37 131 0.0 0.0 0.00 0.04 0.02 94 995.1
20260509112027 37 131 0.0 1.0 0.00 0.04 0.02 94 995.2
20260509111527 37 131 1.0 2.0 0.00 0.04 0.02 94 995.2
20260509111523 37 131 1.0 2.0 0.00 0.04 0.02 94 995.3
20260509110528 38 131 0.0 0.0 0.00 0.04 0.02 94 995.5
20260509110522 37 131 0.0 2.0 0.00 0.04 0.02 94 995.3
20260509105524 38 131 0.0 0.0 0.00 0.04 0.02 94 995.5
20260509105520 38 131 0.0 0.0 0.00 0.04 0.02 94 995.6
20260509105124 38 131 0.0 1.0 0.00 0.04 0.02 94 995.8
20260509104622 38 131 0.0 0.0 0.00 0.04 0.02 94 995.7
20260509103519 38 131 0.0 1.0 0.00 0.04 0.02 94 995.9
20260509103515 38 131 0.0 1.0 0.00 0.04 0.02 94 995.8
20260509102512 38 131 0.0 1.0 0.00 0.04 0.02 94 995.9
20260509102012 38 131 0.0 2.0 0.00 0.04 0.02 94 996.0
20260509101507 38 131 1.0 2.0 0.00 0.04 0.02 94 996.0
20260509101004 38 131 1.0 2.0 0.00 0.04 0.02 94 996.1
20260509100509 38 131 0.0 2.0 0.00 0.04 0.02 93 996.2
20260509100505 38 131 0.0 2.0 0.01 0.04 0.02 93 996.3
20260509095505 38 131 0.0 2.0 0.01 0.04 0.02 93 996.4
20260509095501 38 131 0.0 2.0 0.01 0.04 0.02 93 996.3
20260509094459 38 131 0.0 2.0 0.01 0.04 0.02 93 996.5
20260509093956 38 131 0.0 2.0 0.01 0.04 0.02 93 996.6
20260509093457 38 131 0.0 2.0 0.01 0.04 0.02 93 996.7
20260509092954 38 131 0.0 2.0 0.01 0.04 0.02 93 996.7
20260509092455 38 131 1.0 3.0 0.01 0.04 0.02 92 996.9
20260509091952 38 131 1.0 3.0 0.01 0.04 0.02 92 997.0
20260509091452 38 131 1.0 3.0 0.01 0.04 0.02 92 997.0
20260509090952 38 131 1.0 3.0 0.01 0.04 0.02 92 997.1
20260509090453 38 131 1.0 2.0 0.02 0.04 0.02 92 997.2
20260509085956 39 131 0.0 2.0 0.01 0.03 0.01 92 997.4
20260509085952 39 131 1.0 2.0 0.01 0.03 0.01 92 997.3
20260509084952 39 131 0.0 0.0 0.01 0.03 0.01 92 997.5
20260509084456 39 131 0.0 0.0 0.01 0.03 0.01 92 997.7
20260509084452 39 131 0.0 0.0 0.01 0.03 0.01 92 997.6
20260509083452 39 131 0.0 0.0 0.01 0.03 0.01 92 997.7
20260509082950 39 131 0.0 0.0 0.01 0.03 0.01 91 997.8
20260509082450 39 131 0.0 0.0 0.01 0.03 0.01 91 997.9
20260509081948 39 131 0.0 2.0 0.01 0.03 0.01 91 997.9
20260509081446 39 131 1.0 2.0 0.01 0.03 0.01 91 998.0
20260509080947 39 131 1.0 2.0 0.01 0.03 0.01 90 998.1
20260509080444 39 131 1.0 2.0 0.01 0.02 0.00 90 998.1
20260509075943 39 131 0.0 2.0 0.01 0.02 0.02 90 998.2
20260509075442 39 131 0.0 2.0 0.01 0.02 0.02 90 998.2
20260509074942 39 131 1.0 2.0 0.01 0.02 0.02 89 998.2
20260509074443 39 131 1.0 2.0 0.01 0.02 0.02 89 998.3
20260509073947 39 131 1.0 3.0 0.01 0.02 0.02 89 998.5
20260509073943 39 131 1.0 3.0 0.01 0.02 0.02 89 998.4
20260509072943 40 131 1.0 3.0 0.01 0.02 0.02 89 998.5
20260509072443 40 131 1.0 3.0 0.01 0.02 0.02 88 998.6
20260509071942 40 131 0.0 2.0 0.02 0.02 0.02 88 998.6
20260509071442 40 131 0.0 0.0 0.02 0.02 0.02 88 998.7
20260509070944 40 131 0.0 1.0 0.02 0.02 0.02 88 998.7
20260509070443 40 131 1.0 3.0 0.01 0.01 0.01 87 998.8
20260509065942 40 131 2.0 6.0 0.01 0.01 0.01 86 998.8
20260509065442 40 131 2.0 6.0 0.01 0.01 0.01 85 998.8
20260509064942 41 116 2.0 7.0 0.01 0.01 0.01 85 998.8
20260509064442 41 152 2.0 7.0 0.01 0.01 0.01 86 998.8
20260509063942 41 94 1.0 3.0 0.01 0.01 0.01 86 998.8
20260509063442 42 147 1.0 3.0 0.01 0.01 0.01 86 998.9
20260509062942 42 147 0.0 3.0 0.01 0.01 0.01 85 998.9
20260509062442 42 147 0.0 1.0 0.01 0.01 0.01 83 998.9
20260509061941 42 147 0.0 1.0 0.00 0.00 0.01 84 998.9
20260509061440 42 147 0.0 1.0 0.00 0.00 0.00 82 999.0
20260509060940 42 147 0.0 1.0 0.00 0.00 0.00 81 999.0
20260509060441 43 147 0.0 3.0 0.00 0.00 0.00 80 999.0
20260509055941 43 147 1.0 3.0 0.00 0.00 0.00 78 999.1
20260509055444 44 156 2.0 5.0 0.00 0.00 0.00 73 999.1
20260509055440 43 147 1.0 4.0 0.00 0.00 0.00 77 999.1
20260509055044 43 143 2.0 4.0 0.00 0.00 0.00 75 999.1
20260509053939 44 137 3.0 5.0 0.00 0.00 0.00 73 999.1
20260509053438 44 138 2.0 5.0 0.00 0.00 0.00 72 999.1
20260509052932 44 133 2.0 6.0 0.00 0.00 0.00 70 999.1
20260509052432 45 142 2.0 6.0 0.00 0.00 0.00 69 999.2
20260509051931 45 153 2.0 5.0 0.00 0.00 0.00 67 999.2
20260509051429 45 166 2.0 6.0 0.00 0.00 0.00 67 999.2
20260509050929 45 185 1.0 6.0 0.00 0.00 0.00 67 999.2
20260509050432 45 243 0.0 2.0 0.00 0.00 0.00 65 999.2
20260509050428 45 241 0.0 2.0 0.00 0.00 0.00 64 999.2
20260509050034 45 243 0.0 4.0 0.00 0.00 0.00 65 999.2
20260509044928 45 243 1.0 4.0 0.00 0.00 0.00 65 999.2
20260509044428 45 252 1.0 4.0 0.00 0.00 0.00 65 999.3
20260509043928 45 255 2.0 6.0 0.00 0.00 0.00 65 999.4
20260509043426 45 248 2.0 6.0 0.00 0.00 0.00 64 999.4
20260509042924 45 247 2.0 6.0 0.00 0.00 0.00 64 999.4
20260509042424 46 230 2.0 7.0 0.00 0.00 0.00 64 999.5
20260509041926 46 268 2.0 5.0 0.00 0.00 0.00 64 999.4
20260509041922 46 197 2.0 7.0 0.00 0.00 0.00 64 999.5
20260509040918 46 266 3.0 7.0 0.00 0.00 0.00 63 999.4
20260509040422 46 264 3.0 6.0 0.00 0.00 0.00 62 999.5
20260509040418 46 270 3.0 7.0 0.00 0.00 0.00 62 999.4
20260509035418 46 239 4.0 8.0 0.00 0.00 0.00 61 999.5
20260509034918 46 271 3.0 8.0 0.00 0.00 0.00 59 999.6
20260509034418 46 252 3.0 6.0 0.00 0.00 0.00 61 999.6
20260509033918 46 289 4.0 8.0 0.00 0.00 0.00 61 999.7
20260509033418 46 285 4.0 8.0 0.00 0.00 0.00 60 999.7
20260509032920 46 287 4.0 9.0 0.00 0.00 0.00 60 999.8
20260509032916 46 295 4.0 8.0 0.00 0.00 0.00 60 999.8
20260509031917 46 289 4.0 9.0 0.00 0.00 0.00 60 999.9
20260509031410 46 293 5.0 8.0 0.00 0.00 0.00 60 999.9
20260509030910 46 288 5.0 9.0 0.00 0.00 0.00 59 999.9
20260509030410 46 302 5.0 9.0 0.00 0.00 0.00 58 1000.0
20260509025910 46 299 5.0 8.0 0.00 0.00 0.00 58 1000.0
20260509025410 46 259 5.0 11.0 0.00 0.00 0.00 58 1000.0
20260509024914 46 307 5.0 10.0 0.00 0.00 0.00 56 1000.1
20260509024910 46 295 6.0 11.0 0.00 0.00 0.00 57 1000.1
20260509023910 47 258 5.0 10.0 0.00 0.00 0.00 56 1000.1
20260509023404 47 283 6.0 10.0 0.00 0.00 0.00 57 1000.2
20260509022904 47 262 6.0 12.0 0.00 0.00 0.00 59 1000.2
20260509022405 47 286 6.0 12.0 0.00 0.00 0.00 58 1000.3
20260509021905 48 293 4.0 9.0 0.00 0.00 0.00 56 1000.3
20260509021404 49 292 5.0 9.0 0.00 0.00 0.00 56 1000.4
20260509020904 49 262 3.0 9.0 0.00 0.00 0.00 53 1000.4
20260509020404 49 243 3.0 9.0 0.00 0.00 0.00 47 1000.4
20260509015904 49 295 3.0 9.0 0.00 0.00 0.00 43 1000.4
20260509015402 50 276 2.0 6.0 0.00 0.00 0.00 43 1000.6
20260509014902 50 350 1.0 4.0 0.00 0.00 0.00 44 1000.7
20260509014402 50 295 1.0 4.0 0.00 0.00 0.00 43 1000.7
20260509013857 49 299 3.0 7.0 0.00 0.00 0.00 43 1000.8
20260509013358 49 285 3.0 8.0 0.00 0.00 0.00 44 1000.9
20260509012859 49 243 3.0 8.0 0.00 0.00 0.00 47 1000.9
20260509012358 49 287 4.0 7.0 0.00 0.00 0.00 46 1001.0
20260509011858 49 284 3.0 7.0 0.00 0.00 0.00 46 1001.1
20260509011358 49 266 3.0 7.0 0.00 0.00 0.00 46 1001.2
20260509010858 50 275 2.0 7.0 0.00 0.00 0.00 45 1001.4
20260509010854 50 285 3.0 7.0 0.00 0.00 0.00 44 1001.3
20260509005854 50 245 2.0 7.0 0.00 0.00 0.00 46 1001.4
20260509005354 50 241 3.0 7.0 0.00 0.00 0.00 45 1001.5
20260509004854 50 291 3.0 6.0 0.00 0.00 0.00 45 1001.5
20260509004352 50 228 3.0 5.0 0.00 0.00 0.00 46 1001.6
20260509003852 49 292 4.0 8.0 0.00 0.00 0.00 46 1001.6
20260509003351 49 170 4.0 8.0 0.00 0.00 0.00 44 1001.7
20260509002847 50 199 3.0 7.0 0.00 0.00 0.00 44 1001.8
20260509002346 50 144 4.0 9.0 0.00 0.00 0.00 44 1001.9
20260509001846 50 136 3.0 9.0 0.00 0.00 0.00 44 1001.9
20260509001346 51 190 2.0 7.0 0.00 0.00 0.00 44 1002.1
20260509000846 51 320 3.0 7.0 0.00 0.00 0.00 42 1002.1
20260509000348 51 177 3.0 6.0 0.00 0.00 0.00 43 1002.3
20260509000344 51 246 2.0 6.0 0.00 0.00 0.00 42 1002.2
20260508235344 51 188 2.0 6.0 0.00 0.00 0.00 43 1002.4
20260508234844 51 191 2.0 6.0 0.00 0.00 0.00 44 1002.4
20260508234343 50 191 2.0 6.0 0.00 0.00 0.00 45 1002.5
20260508233842 50 162 1.0 5.0 0.00 0.00 0.00 43 1002.5
20260508233343 50 256 1.0 5.0 0.00 0.00 0.00 44 1002.5
20260508232841 50 258 2.0 5.0 0.00 0.00 0.00 43 1002.6
20260508232346 49 235 1.0 6.0 0.00 0.00 0.00 44 1002.8
20260508232342 50 252 1.0 4.0 0.00 0.00 0.00 46 1002.7
20260508231339 49 239 2.0 6.0 0.00 0.00 0.00 43 1002.9
20260508230840 49 212 2.0 7.0 0.00 0.00 0.00 43 1002.9
20260508230338 49 135 2.0 7.0 0.00 0.00 0.00 43 1002.9
20260508225838 49 128 3.0 8.0 0.00 0.00 0.00 42 1003.0
20260508225338 49 144 4.0 8.0 0.00 0.00 0.00 43 1003.1
20260508224837 49 191 4.0 8.0 0.00 0.00 0.00 42 1003.2
20260508224340 49 175 4.0 8.0 0.00 0.00 0.00 42 1003.3
20260508223836 49 258 3.0 8.0 0.00 0.00 0.00 43 1003.3
20260508223340 49 286 2.0 7.0 0.00 0.00 0.00 42 1003.4
20260508223336 50 201 3.0 8.0 0.00 0.00 0.00 42 1003.4
20260508222941 49 171 3.0 8.0 0.00 0.00 0.00 43 1003.5
20260508222442 49 268 3.0 8.0 0.00 0.00 0.00 44 1003.5
20260508221335 49 191 2.0 8.0 0.00 0.00 0.00 43 1003.6
20260508220834 48 301 4.0 9.0 0.00 0.00 0.00 43 1003.7
20260508220333 49 126 4.0 9.0 0.00 0.00 0.00 42 1003.8
20260508215833 49 193 3.0 9.0 0.00 0.00 0.00 46 1003.8
20260508215333 49 172 4.0 8.0 0.00 0.00 0.00 44 1003.9
20260508214834 48 138 4.0 8.0 0.00 0.00 0.00 45 1004.0
20260508214333 48 212 3.0 7.0 0.00 0.00 0.00 47 1004.0
20260508213833 48 239 3.0 8.0 0.00 0.00 0.00 46 1004.1
20260508213338 48 114 3.0 10.0 0.00 0.00 0.00 46 1004.2
20260508213334 48 127 3.0 10.0 0.00 0.00 0.00 45 1004.1
20260508212337 48 93 3.0 7.0 0.00 0.00 0.00 47 1004.4
20260508212333 48 207 3.0 8.0 0.00 0.00 0.00 47 1004.3
20260508211333 48 190 5.0 10.0 0.00 0.00 0.00 47 1004.5
20260508210834 48 196 5.0 10.0 0.00 0.00 0.00 47 1004.5
20260508210334 48 187 4.0 11.0 0.00 0.00 0.00 47 1004.5
20260508205834 48 116 4.0 11.0 0.00 0.00 0.00 48 1004.6
20260508205333 48 147 3.0 10.0 0.00 0.00 0.00 49 1004.7
20260508204833 48 187 2.0 7.0 0.00 0.00 0.00 51 1004.7
20260508204334 48 222 2.0 7.0 0.00 0.00 0.00 52 1004.8
20260508203834 47 193 3.0 7.0 0.00 0.00 0.00 51 1005.0
20260508203334 47 191 3.0 10.0 0.00 0.00 0.00 52 1005.1
20260508202834 47 174 2.0 10.0 0.00 0.00 0.00 53 1005.1
20260508202334 46 280 2.0 7.0 0.00 0.00 0.00 54 1005.1
20260508201833 46 199 3.0 7.0 0.00 0.00 0.00 53 1005.3
20260508201332 46 103 4.0 7.0 0.00 0.00 0.00 53 1005.3
20260508200831 46 99 4.0 8.0 0.00 0.00 0.00 52 1005.4
20260508200329 46 152 4.0 8.0 0.00 0.00 0.00 52 1005.4
20260508195829 47 194 4.0 8.0 0.00 0.00 0.00 54 1005.5
20260508195323 46 183 3.0 8.0 0.00 0.00 0.00 57 1005.5
20260508194824 46 189 2.0 7.0 0.00 0.00 0.00 58 1005.6
20260508194818 45 49 2.0 6.0 0.00 0.00 0.00 58 1005.6
20260508193819 45 130 4.0 7.0 0.00 0.00 0.00 59 1005.8
20260508193815 45 140 2.0 6.0 0.00 0.00 0.00 59 1005.7
20260508192813 45 188 4.0 8.0 0.00 0.00 0.00 59 1005.8
20260508192313 45 81 4.0 9.0 0.00 0.00 0.00 58 1005.9
20260508191817 45 100 4.0 9.0 0.00 0.00 0.00 56 1006.1
20260508191813 45 139 4.0 9.0 0.00 0.00 0.00 57 1005.9
20260508190812 45 152 3.0 8.0 0.00 0.00 0.00 59 1006.0
20260508190312 45 164 3.0 7.0 0.00 0.00 0.00 58 1006.1
20260508190307 45 110 3.0 8.0 0.00 0.00 0.00 59 1006.1
20260508185301 45 87 3.0 6.0 0.00 0.00 0.00 58 1006.2
20260508184759 44 178 2.0 5.0 0.00 0.00 0.00 60 1006.3